Miscellaneous Local Product
Issued by NWS North Platte, NE

Home | Current Version | Previous Version | Graphics & Text | Print | Product List | Glossary On
Versions: 1 2 3 4 5 6 7 8 9 10 11 12 13 14 15 16 17 18 19 20 21 22 23 24 25 26 27 28 29 30 31 32 33 34 35 36 37 38 39 40 41 42 43 44 45 46 47 48 49 50
000
AXUS43 KLBF 301810
MISLBF


WESTERN AND NORTH CENTRAL NEBRASKA HOURLY WEATHER ROUNDUP
NATIONAL WEATHER SERVICE NORTH PLATTE NE
100 PM CDT SUN AUG 30 2015

NOTE: "FAIR" INDICATES FEW OR NO CLOUDS BELOW 12,000 FEET WITH NO
SIGNIFICANT WEATHER AND/OR OBSTRUCTIONS TO VISIBILITY.

NOTE: STATIONS NOT REPORTING VARIABLES SUCH AS SKY/WEATHER OR
PRESSURE ARE PROVIDED BY THE NEBRASKA DEPARTMENT OF
ROADS...RAWS...AND APRS NETWORKS...AND ARE NOT UNDER
NATIONAL WEATHER SERVICE QUALITY CONTROL.

...OBSERVATIONS IN AND NEAR THE EASTERN PANHANDLE OF NEBRASKA...

CITY           SKY/WX    TMP DP  RH WIND       PRES   REMARKS
PINE RIDGE     MOSUNNY   89  50  26 S14G22    29.88F
CHADRON        SUNNY     95  46  18 W8        29.86F HX  91
ALLIANCE       MOSUNNY   90  49  24 S17       29.96F
SIDNEY         SUNNY     91  47  21 SW22      30.02F
CRESCENT LAKE    N/A     89  53  28 S10         N/A
BIG SPRINGS      N/A     89  52  27 S14         N/A
$$

...OBSERVATIONS IN NORTH CENTRAL NEBRASKA...

CITY           SKY/WX    TMP DP  RH WIND       PRES   REMARKS
VALENTINE      CLOUDY    93  44  18 S25G36    29.89F
THEDFORD       SUNNY     89  48  24 S20G32    29.97F
AINSWORTH      SUNNY     89  51  27 S21       29.94F
O`NEILL        SUNNY     85  64  49 S13       29.96F
ORD            SUNNY     85  58  39 S13       29.97F
BROKEN BOW     SUNNY     86  58  38 S14       29.99F
SPRINGVIEW       N/A     88  60  38 SW8         N/A
SARGENT          N/A     85  60  43 CALM        N/A
CHAMBERS         N/A     86  62  44 S9          N/A
EWING            N/A     80  69  70 S7          N/A
$$

...OBSERVATIONS IN SOUTHWEST NEBRASKA AND FAR NORTHEAST COLORADO...

CITY           SKY/WX    TMP DP  RH WIND       PRES   REMARKS
WRAY           FAIR      94  41  16 S21       30.02F HX  90
HOLYOKE        FAIR      91  52  25 S14G23    30.01F
IMPERIAL       SUNNY     91  44  19 S20G25    30.01F
OGALLALA       SUNNY     90  47  23 S18G25    29.99F
NORTH PLATTE   SUNNY     87  51  28 S17       29.98F
MCCOOK         SUNNY     92  46  20 S14       30.00F
LEXINGTON      SUNNY     86  58  38 S15       30.00F
PAXTON           N/A     87  55  33 S14         N/A
BRADY            N/A     84  59  42 CALM        N/A
CALLAWAY         N/A     83  65  53 S14         N/A
$$

...OBSERVATIONS IN CENTRAL LINCOLN COUNTY AREA...

CITY           SKY/WX    TMP DP  RH WIND       PRES   REMARKS
N.P. AIRPORT   SUNNY     87  51  28 S17       29.98F
N.P. DOWNTOWN    N/A     88  53  29 S7G15       N/A
N.P. SOUTHEAST   N/A     88  53  30 S8G17       N/A
$$

...SOME OBSERVATIONS FROM AROUND THE REGION...

CITY           SKY/WX    TMP DP  RH WIND       PRES   REMARKS
DENVER         MOSUNNY   92  32  12 CALM      30.11F
LARAMIE        SUNNY     83  35  18 W15G28    30.20F
CHEYENNE       MOSUNNY   89  33  13 NW13G23   30.12F
SCOTTSBLUFF    SUNNY     85  53  33 E9        29.96F
RAPID CITY     MOSUNNY   89  57  33 S10       29.81F
PIERRE         SUNNY     95  52  23 S20G28    29.75F HX  92
WINNER         FAIR      91  52  26 S20G30    29.86F
SIOUX FALLS    MOSUNNY   72  64  76 S13       29.97F
OMAHA          CLOUDY    70  64  81 S13       30.06F
KANSAS CITY    CLOUDY    80  65  59 NE8       30.05F
WICHITA        PTSUNNY   79  64  60 CALM      30.04F
HAYS           SUNNY     82  57  42 SE10G16   30.04F
LIBERAL        SUNNY     88  48  25 S6        30.09F
GOODLAND       MOSUNNY   87  43  21 S18G28    30.06F
$$



USA.gov is the U.S. government's official web portal to all federal, state and local government web resources and services.